Вернуться в каталог

SHIYAN 5

SY-5

АктивенНаукаSSO
NORAD 39455·PAYLOAD·🇨🇳 China

Запущен Nov 25, 2013 с Jiuquan Satellite Launch Center

Loading…

Ближайшие Пролёты (ближайшие 24 часа)

TLE

СвежийSource: Space-Track

Эпоха: Sep 14, 2026, 14:51 UTC

1 39455U 13068A   26257.61922104  .00000200  00000-0  70665-4 0  9991
2 39455  98.0567 124.0988 0015081  35.4868 324.7324 14.43714119674539

Отслеживайте SHIYAN 5 в реальном времени с AllMySat

Download on the App Store